[[{"header":{"parameterUnit":"m.s-1","parameterCategory":1,"la1":30.2991,"la2":30.254,"lo1":-89.0895,"lo2":-89.0444,"dy":0.0017,"dx":0.0017,"nx":28,"ny":28,"refTime":"2025-11-09T03:00:00:Z","depth":0,"parameterNumber":2,"parameterNumberName":"U-component_of_WINDS"},"data":[0,0,0,0,0,0,0,0,0,0,0,0,0,0,0,0,0,0,0,0,0,0,0,0,0,0,0,0,0,0,0,0,0,0,0,0,0,0,0,0,0,0,0,0,0,0,0,0,0,0,0,0,0,0,0,0,0,0,2.8049,2.8049,0,2.8098,2.8098,2.8099,2.8043,2.8041,2.8039,2.8037,2.8088,2.8092,2.8095,0,0,0,0,0,0,0,0,0,0,0,0,0,2.791,2.7912,2.8049,2.8049,2.805,2.8098,2.8098,2.8099,2.8043,2.8041,2.8038,2.8036,2.8087,2.8091,2.8095,0,0,0,0,0,0,0,0,0,0,0,0,0,2.7965,2.7913,2.8049,2.8028,2.8027,2.8097,2.8098,2.8099,2.8044,2.8041,2.8037,2.8034,2.8086,2.8091,2.8096,2.819,0,0,2.8111,2.8113,0,0,0,0,0,0,0,0,2.7962,2.7971,2.803,2.8029,2.8028,2.8061,2.8068,2.813,2.8045,2.8037,2.8037,2.8033,2.8082,2.8087,2.8103,2.8192,2.8195,2.8112,2.8115,2.8117,2.8118,0,0,0,0,0,0,0,2.7959,2.7968,2.8068,2.8031,2.803,2.8017,2.8021,2.8079,2.8077,2.8038,2.8034,2.804,2.8081,2.8098,2.8104,2.8195,2.8111,2.8116,2.8119,2.8121,2.8366,2.8369,0,0,0,0,0,0,2.7957,2.7965,2.8067,2.807,2.7987,2.8022,2.8027,2.8054,2.8076,2.8076,2.8043,2.8037,2.8091,2.8098,2.8106,2.8218,2.8117,2.8121,2.8124,2.8362,2.8366,2.837,0,0,0,0,0,0,2.7954,2.7966,2.8065,2.8016,2.8028,2.8028,2.8058,2.8056,2.8074,2.808,2.8079,2.8061,2.8089,2.8099,2.817,2.8219,2.8124,2.8128,2.8358,2.8364,2.8368,2.8444,0,0,0,0,0,0,2.795,2.7966,2.8001,2.8018,2.8031,2.8127,2.8061,2.8059,2.8082,2.8076,2.8097,2.8098,2.8087,2.8162,2.8175,2.8224,2.8132,2.8354,2.8361,2.8367,2.8437,2.8451,2.8463,0,0,0,0,0,2.7945,2.802,2.8003,2.8015,2.8075,2.813,2.8138,2.8124,2.8087,2.8123,2.8127,2.8097,2.8212,2.817,2.8183,2.8235,2.8351,2.8359,2.8366,2.8431,2.8448,2.8462,0,0,0,0,0,0,2.8009,2.8022,2.8003,2.8085,2.8107,2.8121,2.8165,2.8143,2.8176,2.8168,2.815,2.8156,2.8232,2.824,2.8194,2.8328,2.8275,2.8286,2.832,2.8336,2.8349,2.8345,2.8136,0,0,0,0,0,2.8033,2.8077,2.8085,2.8157,2.8169,2.8166,2.8189,2.8177,2.8199,2.8208,2.8217,2.824,2.8282,2.8309,2.8348,2.8438,2.8442,2.848,2.8493,2.8504,2.8514,2.8563,2.858,2.8396,2.8396,2.8396,0,0,2.8082,2.8095,2.8123,2.817,2.8186,2.8232,2.8174,2.8225,2.8259,2.8216,2.8284,2.8291,2.8316,2.8398,2.8434,2.8407,2.8565,2.8514,2.8522,2.8526,2.8573,2.859,2.8606,2.8401,2.84,2.84,0,0,2.8196,2.8209,2.8271,2.8288,2.8312,2.8309,2.8324,2.8342,2.8345,2.8413,2.8382,2.8423,2.8494,2.8513,2.8532,2.8655,2.8629,2.8668,2.8736,2.8784,2.8799,2.8812,2.8856,2.8872,2.8677,2.8678,2.8678,0,2.8254,2.8322,2.8306,2.8359,2.8382,2.8344,2.8407,2.8425,2.8461,2.8477,2.8447,2.8536,2.855,2.8636,2.8666,2.8682,2.87,2.8665,2.8798,2.8811,2.8822,2.8864,2.8881,2.8682,2.8682,2.8681,2.8681,0,2.8393,2.8441,2.8488,2.8523,2.8551,2.8609,2.8602,2.8632,2.8618,2.8619,2.8689,2.8704,2.8745,2.8765,2.8751,2.8849,2.8832,2.88,2.8747,2.8845,2.8884,2.89,2.8689,2.8687,2.8686,2.8685,0,0,2.8548,2.8574,2.8591,2.8607,2.8632,2.8669,2.8726,2.8766,2.8792,2.8819,2.8867,2.8928,2.8899,2.8921,2.891,2.8952,2.9049,2.8915,2.8915,2.894,2.9159,2.9183,2.9202,2.9032,2.9035,2.9038,2.9157,0,2.8662,2.876,2.8748,2.8842,2.8886,2.8852,2.8902,2.8923,2.8926,2.8965,2.8968,2.9012,2.897,2.8983,2.9024,2.9029,2.9093,2.902,2.9078,2.908,2.9072,2.9222,2.9247,2.9359,2.9172,2.9175,2.9177,0,2.8808,2.884,2.8939,2.8957,2.8975,2.902,2.9057,2.9094,2.9118,2.9117,2.9142,2.9123,2.9181,2.9126,2.9207,2.9157,2.918,2.9187,2.9191,2.9196,2.9134,2.9232,2.9395,2.9412,2.9201,2.9199,2.9197,0,2.8912,2.8979,2.9047,2.9062,2.9085,2.9118,2.9129,2.9149,2.9175,2.9207,2.9223,2.9262,2.9283,2.9314,2.9307,2.9267,2.9389,2.9333,2.9391,2.9391,2.9418,2.9416,2.9587,2.9433,2.9432,2.9432,2.9432,0,2.9041,2.9103,2.9094,2.9136,2.9205,2.919,2.9259,2.9266,2.9285,2.9328,2.9302,2.9343,2.9331,2.9372,2.9367,2.9435,2.9444,2.9446,2.9444,2.9448,2.9448,2.9463,2.9455,2.9436,2.9435,2.9435,2.9434,0,2.9168,2.9164,2.9236,2.9253,2.9259,2.9309,2.9323,2.9363,2.9364,2.9419,2.9431,2.9433,2.948,2.9476,2.9529,2.9526,2.961,2.9599,2.9602,2.96,2.9657,2.9652,2.9844,2.9868,2.9698,2.9699,2.9701,0,2.925,2.9297,2.9319,2.9346,2.936,2.9403,2.9429,2.9417,2.9445,2.9477,2.9513,2.9558,2.9593,2.967,2.9677,2.9717,2.9707,2.9771,2.9713,2.9716,2.9708,2.9706,2.9711,2.9783,2.9785,2.9786,2.9788,0,2.9397,2.9394,2.9431,2.947,2.9501,2.953,2.9557,2.9581,2.9572,2.9605,2.9653,2.968,2.9734,2.978,2.9819,2.9831,2.9809,2.9806,2.9822,2.9827,2.9827,2.9828,2.9634,2.9802,2.98,2.9799,2.9799,2.9798,2.9505,2.9545,2.9567,2.9611,2.963,2.9656,2.9694,2.97,2.974,2.9783,2.9774,2.9828,2.9851,2.9901,2.9918,2.9961,2.9937,2.996,2.9965,2.9971,2.9978,2.982,2.9968,2.9967,2.9967,2.9966,2.9966,0,2.9651,2.9664,2.9704,2.9742,2.9777,2.9752,2.9781,2.9811,2.9859,2.9883,2.9918,2.9974,3.0018,3.0028,3.0071,3.0103,3.0094,3.0115,3.0112,3.0115,2.9996,2.9979,3.0121,3.0121,3.0121,3.0121,3.0121,3.0121,2.9731,2.9798,2.9798,2.9875,2.9887,2.994,2.9958,2.9982,3.0001,3.0064,3.0101,3.0107,3.0126,3.0169,3.0209,3.0211,3.0228,3.0253,3.0251,3.0139,3.0124,3.0109,3.0092,3.0257,3.0257,3.0367,3.0368,3.0369]},{"header":{"parameterUnit":"m.s-1","parameterCategory":1,"la1":30.2991,"la2":30.254,"lo1":-89.0895,"lo2":-89.0444,"dy":0.0017,"dx":0.0017,"nx":28,"ny":28,"refTime":"2025-11-09T03:00:00:Z","depth":0,"parameterNumber":3,"parameterNumberName":"V-component_of_WINDS"},"data":[0,0,0,0,0,0,0,0,0,0,0,0,0,0,0,0,0,0,0,0,0,0,0,0,0,0,0,0,0,0,0,0,0,0,0,0,0,0,0,0,0,0,0,0,0,0,0,0,0,0,0,0,0,0,0,0,0,0,0.505,0.505,0,0.507,0.5071,0.5071,0.5045,0.5044,0.5044,0.5043,0.5064,0.5065,0.5067,0,0,0,0,0,0,0,0,0,0,0,0,0,0.4988,0.4989,0.505,0.505,0.505,0.507,0.5071,0.5071,0.5046,0.5044,0.5043,0.5042,0.5063,0.5065,0.5067,0,0,0,0,0,0,0,0,0,0,0,0,0,0.5012,0.499,0.505,0.504,0.5039,0.507,0.5071,0.5071,0.5046,0.5044,0.5043,0.5042,0.5063,0.5065,0.5067,0.5108,0,0,0.5074,0.5075,0,0,0,0,0,0,0,0,0.5011,0.5015,0.5041,0.5041,0.504,0.5054,0.5057,0.5084,0.5046,0.5043,0.5043,0.5041,0.5062,0.5064,0.5071,0.5109,0.511,0.5074,0.5075,0.5076,0.5077,0,0,0,0,0,0,0,0.5009,0.5014,0.5058,0.5042,0.5041,0.5035,0.5036,0.5062,0.506,0.5044,0.5042,0.5045,0.5061,0.5069,0.5071,0.5111,0.5074,0.5076,0.5077,0.5078,0.5184,0.5185,0,0,0,0,0,0,0.5009,0.5012,0.5057,0.5059,0.5022,0.5037,0.5039,0.5051,0.506,0.506,0.5046,0.5043,0.5066,0.5069,0.5072,0.5121,0.5076,0.5078,0.5079,0.5182,0.5184,0.5186,0,0,0,0,0,0,0.5008,0.5013,0.5056,0.5035,0.504,0.5039,0.5053,0.5052,0.506,0.5061,0.5061,0.5054,0.5065,0.5069,0.5099,0.5121,0.5079,0.5081,0.5181,0.5183,0.5185,0.522,0,0,0,0,0,0,0.5006,0.5013,0.5029,0.5036,0.5041,0.5084,0.5054,0.5053,0.5064,0.5061,0.5069,0.5069,0.5064,0.5096,0.5102,0.5123,0.5083,0.5179,0.5182,0.5184,0.5216,0.5223,0.5228,0,0,0,0,0,0.5004,0.5038,0.503,0.5035,0.5061,0.5085,0.5089,0.5082,0.5065,0.5081,0.5082,0.5069,0.5118,0.51,0.5105,0.5128,0.5177,0.5181,0.5184,0.5214,0.5221,0.5228,0,0,0,0,0,0,0.5034,0.5039,0.503,0.5067,0.5076,0.5081,0.5101,0.5091,0.5105,0.5101,0.5092,0.5095,0.5127,0.5131,0.511,0.5169,0.5145,0.5149,0.5165,0.5173,0.5178,0.5177,0.5084,0,0,0,0,0,0.5045,0.5064,0.5067,0.51,0.5104,0.5102,0.5112,0.5106,0.5116,0.5119,0.5122,0.5132,0.5149,0.5161,0.5177,0.5216,0.5218,0.5235,0.5241,0.5245,0.525,0.5271,0.5278,0.5197,0.5197,0.5197,0,0,0.5068,0.5073,0.5085,0.5106,0.5112,0.5132,0.5106,0.5128,0.5143,0.5123,0.5152,0.5155,0.5164,0.5199,0.5215,0.5203,0.5272,0.525,0.5253,0.5255,0.5275,0.5283,0.529,0.5199,0.5199,0.5199,0,0,0.512,0.5125,0.5153,0.516,0.5169,0.5167,0.5174,0.5181,0.5182,0.5211,0.5196,0.5213,0.5243,0.5251,0.5259,0.5312,0.5301,0.5318,0.5349,0.5369,0.5375,0.5381,0.5401,0.5408,0.5322,0.5322,0.5322,0,0.5147,0.5177,0.5169,0.5192,0.5201,0.5183,0.5211,0.5218,0.5233,0.524,0.5226,0.5263,0.5268,0.5305,0.5318,0.5325,0.5332,0.5317,0.5375,0.5381,0.5386,0.5404,0.5412,0.5324,0.5324,0.5324,0.5324,0,0.521,0.5231,0.5252,0.5267,0.5278,0.5304,0.5299,0.5311,0.5304,0.5303,0.5333,0.5338,0.5355,0.5363,0.5357,0.5399,0.5391,0.5377,0.5353,0.5396,0.5413,0.542,0.5327,0.5326,0.5326,0.5325,0,0,0.5283,0.5292,0.53,0.5306,0.5315,0.5331,0.5355,0.5371,0.5383,0.5393,0.5413,0.5439,0.5425,0.5434,0.5427,0.5445,0.5488,0.5428,0.5428,0.5439,0.5535,0.5547,0.5555,0.5479,0.5481,0.5482,0.5534,0,0.5335,0.5378,0.5371,0.5412,0.5431,0.5414,0.5435,0.5443,0.5442,0.5458,0.5458,0.5476,0.5456,0.5462,0.5478,0.5479,0.5507,0.5475,0.5498,0.5499,0.5498,0.5564,0.5577,0.5626,0.5541,0.5542,0.5543,0,0.5403,0.5415,0.5459,0.5464,0.5472,0.5491,0.5505,0.5521,0.5529,0.5527,0.5537,0.5527,0.5551,0.5526,0.5559,0.5537,0.5546,0.5548,0.5549,0.5552,0.5525,0.5569,0.5642,0.5649,0.5553,0.5552,0.5552,0,0.5452,0.548,0.5509,0.5515,0.5522,0.5536,0.554,0.5546,0.5556,0.5569,0.5575,0.559,0.5598,0.5609,0.5604,0.5586,0.5638,0.5612,0.5637,0.5638,0.565,0.565,0.5726,0.5655,0.5654,0.5654,0.5654,0,0.5512,0.554,0.5532,0.555,0.558,0.5571,0.56,0.5602,0.5608,0.5626,0.5611,0.5628,0.5619,0.5636,0.5631,0.5659,0.5663,0.5662,0.5661,0.5664,0.5664,0.5671,0.5667,0.5656,0.5656,0.5655,0.5655,0,0.5573,0.5569,0.56,0.5604,0.5605,0.5627,0.563,0.5647,0.5645,0.5668,0.5673,0.567,0.5689,0.5684,0.5704,0.5701,0.5736,0.573,0.5734,0.5733,0.5759,0.5756,0.5842,0.5853,0.5774,0.5775,0.5775,0,0.5612,0.5633,0.5638,0.5649,0.5654,0.5672,0.5682,0.5673,0.5685,0.5695,0.5711,0.5728,0.5741,0.5771,0.5771,0.5786,0.5781,0.581,0.5783,0.5785,0.5782,0.5781,0.5783,0.5815,0.5816,0.5817,0.5818,0,0.5682,0.5679,0.5694,0.5708,0.5721,0.5732,0.5741,0.5751,0.5743,0.5756,0.5775,0.5785,0.5805,0.5822,0.5836,0.5839,0.5827,0.5826,0.5832,0.5837,0.5838,0.5838,0.5749,0.5824,0.5823,0.5823,0.5823,0.5822,0.5733,0.5751,0.5758,0.5775,0.5781,0.579,0.5806,0.5806,0.5821,0.5837,0.5831,0.5853,0.5859,0.5876,0.5881,0.5898,0.5887,0.5897,0.5899,0.5902,0.5906,0.5835,0.59,0.59,0.59,0.59,0.59,0,0.5803,0.5806,0.5822,0.5836,0.5849,0.5836,0.5846,0.5858,0.5877,0.5885,0.5898,0.5919,0.5936,0.5936,0.5951,0.5965,0.5959,0.5969,0.5968,0.5969,0.5914,0.5907,0.5973,0.5973,0.5973,0.5973,0.5973,0.5973,0.5841,0.587,0.5867,0.5899,0.5902,0.5923,0.5929,0.5937,0.5943,0.5968,0.5981,0.5981,0.5986,0.6001,0.6016,0.6015,0.6022,0.6034,0.6032,0.598,0.5973,0.5966,0.596,0.6035,0.6035,0.6085,0.6086,0.6086]}]]